Weather History for Claremore, OK

Change the Weather History Date:

Sunday, May 26, 2013

  Actual Average (KTUL) Record (KTUL)
Temperature  
Mean Temperature 73 °F 72 °F  
Max Temperature 80 °F 82 °F 94 °F (1926)
Min Temperature 66 °F 62 °F 44 °F (1925)
Cooling Degree Days 8 7  
Month to date cooling degree days 128  
Year to date cooling degree days 193  
Growing Degree Days 23 (Base 50)    
Moisture  
Dew Point 66 °F    
Average Humidity 76    
Maximum Humidity 94    
Minimum Humidity 61    
Precipitation  
Precipitation 0.00 in 0.19 in 2.40 in (1984)
Month to date precipitation 4.97  
Year to date precipitation 15.56  
Sea Level Pressure  
Sea Level Pressure 30.05 in    
Wind  
Wind Speed 9 mph (South)    
Max Wind Speed 20 mph    
Max Gust Speed 26 mph    
Visibility 10 miles    
Events      
T = Trace of Precipitation, MM = Missing Value Source: NWS Daily Summary

Daily Weather History Graph

Daily Weather History Graph

Search for Another Location

Airport:

Trip Planner

Search our weather history database for the weather conditions in past years. The results will help you decide how hot, cold, wet, or windy it might be!

Date:

Astronomy

May. 26, 2013 Rise Set
Actual Time 6:08 AM CDT 8:30 PM CDT
Civil Twilight 5:38 AM CDT 8:59 PM CDT
Nautical Twilight 5:02 AM CDT 9:36 PM CDT
Astronomical Twilight 4:22 AM CDT 10:16 PM CDT
Moon 10:19 PM CDT (5/26) 7:37 AM CDT (5/26)
Length of Visible Light 15h 21m
Length of Day
14h 22m
Waning Gibbous, 96% of the Moon is Illuminated
May 26
Waning Gibbous
May 31
Last Quarter
Jun 8
New
Jun 16
First Quarter
Jun 23
Full

Hourly Weather History & Observations

Time (CDT) Temp. Heat Index Dew Point Humidity Pressure Visibility Wind Dir Wind Speed Gust Speed Precip Events Conditions
12:15 AM 68.0 °F - 64.4 °F 88% 30.11 in 10.0 mi South 3.5 mph - N/A   Scattered Clouds
12:35 AM 68.0 °F - 64.4 °F 88% 30.11 in 10.0 mi Calm Calm - N/A   Scattered Clouds
12:55 AM 68.0 °F - 64.4 °F 88% 30.11 in 10.0 mi Calm Calm - N/A   Mostly Cloudy
1:15 AM 68.0 °F - 64.4 °F 88% 30.11 in 10.0 mi South 3.5 mph - N/A   Scattered Clouds
1:35 AM 68.0 °F - 66.2 °F 94% 30.11 in 10.0 mi SSE 4.6 mph - N/A   Clear
1:55 AM 69.8 °F - 66.2 °F 88% 30.11 in 10.0 mi SSE 4.6 mph - N/A   Scattered Clouds
2:15 AM 69.8 °F - 66.2 °F 88% 30.10 in 10.0 mi SSE 6.9 mph - N/A   Scattered Clouds
2:35 AM 69.8 °F - 66.2 °F 88% 30.09 in 10.0 mi SE 5.8 mph - N/A   Clear
2:55 AM 69.8 °F - 66.2 °F 88% 30.09 in 7.0 mi SSE 5.8 mph - N/A   Clear
3:15 AM 69.8 °F - 66.2 °F 88% 30.08 in 10.0 mi South 8.1 mph - N/A   Clear
3:35 AM 68.0 °F - 64.4 °F 88% 30.08 in 10.0 mi South 9.2 mph - N/A   Clear
3:55 AM 68.0 °F - 64.4 °F 88% 30.08 in 10.0 mi South 8.1 mph - N/A   Clear
4:15 AM 68.0 °F - 64.4 °F 88% 30.07 in 10.0 mi South 8.1 mph - N/A   Clear
4:35 AM 68.0 °F - 64.4 °F 88% 30.07 in 10.0 mi South 8.1 mph - N/A   Clear
4:55 AM 68.0 °F - 64.4 °F 88% 30.07 in 10.0 mi SSE 8.1 mph - N/A   Clear
5:15 AM 68.0 °F - 62.6 °F 83% 30.07 in 10.0 mi South 6.9 mph - N/A   Clear
5:35 AM 66.2 °F - 62.6 °F 88% 30.07 in 10.0 mi SSE 8.1 mph - N/A   Clear
5:55 AM 68.0 °F - 62.6 °F 83% 30.07 in 10.0 mi SSE 10.4 mph - N/A   Clear
6:15 AM 68.0 °F - 62.6 °F 83% 30.08 in 10.0 mi SSE 8.1 mph - N/A   Clear
6:35 AM 68.0 °F - 62.6 °F 83% 30.08 in 10.0 mi SSE 6.9 mph - N/A   Clear
6:55 AM 68.0 °F - 62.6 °F 83% 30.08 in 10.0 mi SSE 6.9 mph - N/A   Clear
7:15 AM 68.0 °F - 64.4 °F 88% 30.08 in 10.0 mi SSE 8.1 mph - N/A   Clear
7:35 AM 69.8 °F - 64.4 °F 83% 30.08 in 10.0 mi SSE 11.5 mph - N/A   Clear
7:55 AM 69.8 °F - 64.4 °F 83% 30.08 in 10.0 mi SSE 12.7 mph 17.3 mph N/A   Clear
8:15 AM 69.8 °F - 64.4 °F 83% 30.08 in 10.0 mi South 9.2 mph - N/A   Clear
8:35 AM 71.6 °F - 64.4 °F 78% 30.08 in 10.0 mi South 13.8 mph 18.4 mph N/A   Clear
8:55 AM 71.6 °F - 64.4 °F 78% 30.09 in 10.0 mi South 16.1 mph 20.7 mph N/A   Scattered Clouds
9:15 AM 73.4 °F - 66.2 °F 78% 30.09 in 10.0 mi South 17.3 mph 23.0 mph N/A   Mostly Cloudy
9:35 AM 73.4 °F - 66.2 °F 78% 30.09 in 10.0 mi South 16.1 mph 21.9 mph N/A   Mostly Cloudy
9:55 AM 73.4 °F - 68.0 °F 83% 30.10 in 10.0 mi South 12.7 mph 21.9 mph N/A   Mostly Cloudy
10:15 AM 73.4 °F - 68.0 °F 83% 30.10 in 10.0 mi SSW 11.5 mph 20.7 mph N/A   Overcast
10:35 AM 73.4 °F - 68.0 °F 83% 30.11 in 10.0 mi SSW 13.8 mph 20.7 mph N/A   Mostly Cloudy
10:55 AM 75.2 °F - 68.0 °F 78% 30.10 in 10.0 mi SSW 13.8 mph 21.9 mph N/A   Mostly Cloudy
11:15 AM 77.0 °F - 68.0 °F 74% 30.09 in 10.0 mi South 17.3 mph 20.7 mph N/A   Mostly Cloudy
11:35 AM 77.0 °F - 68.0 °F 74% 30.09 in 10.0 mi South 18.4 mph 25.3 mph N/A   Mostly Cloudy
11:55 AM 77.0 °F - 68.0 °F 74% 30.09 in 10.0 mi South 12.7 mph 17.3 mph N/A   Mostly Cloudy
12:15 PM 78.8 °F - 68.0 °F 69% 30.08 in 10.0 mi South 15.0 mph 21.9 mph N/A   Mostly Cloudy
12:35 PM 78.8 °F - 68.0 °F 69% 30.08 in 10.0 mi South 13.8 mph 20.7 mph N/A   Mostly Cloudy
12:55 PM 78.8 °F - 68.0 °F 69% 30.07 in 10.0 mi SSE 19.6 mph 24.2 mph N/A   Scattered Clouds
1:15 PM 78.8 °F - 68.0 °F 69% 30.06 in 10.0 mi South 15.0 mph 23.0 mph N/A   Scattered Clouds
1:35 PM 80.6 °F 83.9 °F 69.8 °F 70% 30.06 in 10.0 mi South 19.6 mph 26.5 mph N/A   Scattered Clouds
1:55 PM 80.6 °F 83.2 °F 68.0 °F 65% 30.05 in 10.0 mi South 17.3 mph 26.5 mph N/A   Scattered Clouds
2:15 PM 80.6 °F 83.2 °F 68.0 °F 65% 30.05 in 10.0 mi South 18.4 mph 24.2 mph N/A   Scattered Clouds
2:35 PM 80.6 °F 83.2 °F 68.0 °F 65% 30.03 in 10.0 mi South 17.3 mph 25.3 mph N/A   Scattered Clouds
2:55 PM 80.6 °F 83.9 °F 69.8 °F 70% 30.03 in 10.0 mi South 15.0 mph 23.0 mph N/A   Scattered Clouds
3:15 PM 80.6 °F 83.2 °F 68.0 °F 65% 30.03 in 10.0 mi South 17.3 mph 23.0 mph N/A   Scattered Clouds
3:35 PM 80.6 °F 83.2 °F 68.0 °F 65% 30.03 in 10.0 mi South 17.3 mph 23.0 mph N/A   Scattered Clouds
3:55 PM 80.6 °F 83.2 °F 68.0 °F 65% 30.02 in 10.0 mi South 16.1 mph 24.2 mph N/A   Scattered Clouds
4:15 PM 80.6 °F 83.2 °F 68.0 °F 65% 30.01 in 10.0 mi South 16.1 mph 20.7 mph N/A   Scattered Clouds
4:35 PM 78.8 °F - 68.0 °F 69% 30.01 in 10.0 mi South 16.1 mph 20.7 mph N/A   Scattered Clouds
4:55 PM 80.6 °F 83.2 °F 68.0 °F 65% 30.00 in 10.0 mi South 17.3 mph 23.0 mph N/A   Scattered Clouds
5:15 PM 80.6 °F 83.2 °F 68.0 °F 65% 30.00 in 10.0 mi South 12.7 mph - N/A   Clear
5:35 PM 80.6 °F 83.2 °F 68.0 °F 65% 30.00 in 10.0 mi South 16.1 mph 19.6 mph N/A   Clear
5:55 PM 80.6 °F 82.7 °F 66.2 °F 61% 29.99 in 10.0 mi South 11.5 mph 23.0 mph N/A   Scattered Clouds
6:15 PM 80.6 °F 82.7 °F 66.2 °F 61% 29.98 in 10.0 mi South 12.7 mph 24.2 mph N/A   Scattered Clouds
6:35 PM 80.6 °F 82.7 °F 66.2 °F 61% 29.98 in 10.0 mi South 11.5 mph 21.9 mph N/A   Clear
6:55 PM 78.8 °F - 66.2 °F 65% 29.98 in 10.0 mi SSE 12.7 mph 18.4 mph N/A   Clear
7:15 PM 77.0 °F - 66.2 °F 69% 29.98 in 10.0 mi South 9.2 mph - N/A   Clear
7:35 PM 77.0 °F - 64.4 °F 65% 29.98 in 10.0 mi South 9.2 mph - N/A   Clear
7:55 PM 77.0 °F - 64.4 °F 65% 29.98 in 10.0 mi South 9.2 mph - N/A   Clear
8:15 PM 75.2 °F - 64.4 °F 69% 29.98 in 10.0 mi South 8.1 mph - N/A   Clear
8:35 PM 73.4 °F - 64.4 °F 73% 29.98 in 10.0 mi South 9.2 mph - N/A   Clear
8:55 PM 73.4 °F - 64.4 °F 73% 29.99 in 10.0 mi South 8.1 mph - N/A   Scattered Clouds
9:15 PM 71.6 °F - 64.4 °F 78% 29.99 in 10.0 mi South 8.1 mph - N/A   Clear
9:35 PM 71.6 °F - 64.4 °F 78% 29.99 in 10.0 mi South 9.2 mph - N/A   Clear
9:55 PM 71.6 °F - 64.4 °F 78% 29.99 in 10.0 mi South 9.2 mph - N/A   Clear
10:15 PM 69.8 °F - 62.6 °F 78% 30.00 in 10.0 mi South 6.9 mph - N/A   Clear
10:35 PM 71.6 °F - 62.6 °F 73% 30.00 in 10.0 mi South 11.5 mph - N/A   Clear
10:55 PM 71.6 °F - 62.6 °F 73% 30.00 in 10.0 mi South 10.4 mph 16.1 mph N/A   Clear
11:15 PM 71.6 °F - 62.6 °F 73% 30.00 in 10.0 mi SSE 9.2 mph 17.3 mph N/A   Clear
11:35 PM 69.8 °F - 62.6 °F 78% 30.00 in 10.0 mi South 10.4 mph - N/A   Clear
11:55 PM 69.8 °F - 60.8 °F 73% 30.00 in 10.0 mi South 12.7 mph - N/A   Clear